Peru, IL

8:41 AM CDT on October 17, 2017 (GMT -0500)
Illinois Valley Regional-Duncan

Weather History for KVYS - October, 2012

Change the Weather History Date:

Sunday, October 14, 2012

  Actual Average Record
Temperature  
Mean Temperature 58 °F -  
Max Temperature 69 °F 65 °F 84 °F (1989)
Min Temperature 48 °F 41 °F 29 °F (1993)
Degree Days  
Heating Degree Days 6    
Growing Degree Days 8 (Base 50)    
Moisture  
Dew Point 56 °F    
Average Humidity 88    
Maximum Humidity 95    
Minimum Humidity 73    
Precipitation  
Precipitation 0.64 in - - ()
Sea Level Pressure  
Sea Level Pressure 29.64 in    
Wind  
Wind Speed 13 mph (SW)    
Max Wind Speed 28 mph    
Max Gust Speed 43 mph    
Visibility 8 miles    
Events Rain , Thunderstorm    
Averages and records for this station are not official NWS values.
T = Trace of Precipitation, MM = Missing Value Source: NWS Daily Summary

Daily Weather History Graph

Daily Weather History Graph

Search for Another Location

Airport or City:

Trip Planner

Search our weather history database for the weather conditions in past years. The results will help you decide how hot, cold, wet, or windy it might be!

Date:

Astronomy

Oct. 14, 2012 Rise Set
Actual Time 7:07 AM CDT 6:16 PM CDT
Civil Twilight 6:40 AM CDT 6:44 PM CDT
Nautical Twilight 6:07 AM CDT 7:16 PM CDT
Astronomical Twilight 5:35 AM CDT 7:48 PM CDT
Moon 6:06 AM CDT (10/14) 5:36 PM CDT (10/14)
Length of Visible Light 12h 04m
Length of Day
11h 08m
Waning Crescent, 1% of the Moon is Illuminated
Oct 14
Waning Crescent
Oct 15
New
Oct 21
First Quarter
Oct 29
Full
Nov 6
Last Quarter

Hourly Weather History & Observations

Time (CDT) Temp. Dew Point Humidity Pressure Visibility Wind Dir Wind Speed Gust Speed Precip Events Conditions
12:15 AM 64.9 °F 61.9 °F 90% 29.75 in 7.0 mi Calm Calm - N/A   Overcast
12:35 AM 64.9 °F 62.6 °F 92% 29.75 in 5.0 mi Calm Calm - N/A Rain Light Rain
12:55 AM 64.9 °F 62.1 °F 90% 29.75 in 7.0 mi SE 3.5 mph - N/A   Overcast
1:15 AM 64.9 °F 62.2 °F 91% 29.75 in 5.0 mi South 8.1 mph - N/A Rain Rain
1:35 AM 65.7 °F 62.6 °F 90% 29.74 in 7.0 mi SSW 10.4 mph - 0.02 in Rain Light Rain
1:55 AM 65.1 °F 62.6 °F 92% 29.73 in 5.0 mi SSW 6.9 mph - 0.04 in Rain Light Rain
2:15 AM 64.4 °F 62.4 °F 93% 29.72 in 2.5 mi South 5.8 mph - 0.04 in Rain Rain
2:35 AM 64.8 °F 63.0 °F 94% 29.71 in 3.0 mi SSE 6.9 mph - 0.10 in Rain Rain
2:55 AM 64.9 °F 63.5 °F 95% 29.69 in 2.5 mi SSE 8.1 mph - 0.26 in Rain Rain
3:15 AM 64.6 °F 63.0 °F 94% 29.67 in 4.0 mi South 10.4 mph - 0.05 in Rain Rain
3:35 AM 64.4 °F 62.8 °F 94% 29.66 in 3.0 mi South 13.8 mph 20.7 mph 0.14 in Rain Rain
3:55 AM 64.4 °F 62.6 °F 94% 29.65 in 4.0 mi South 16.1 mph - 0.18 in Rain Light Rain
4:15 AM 64.0 °F 62.2 °F 94% 29.63 in 5.0 mi South 15.0 mph 21.9 mph 0.03 in Rain Rain
4:35 AM 63.9 °F 61.9 °F 93% 29.61 in 5.0 mi South 13.8 mph - 0.05 in Rain Rain
4:55 AM 63.7 °F 61.7 °F 93% 29.59 in 5.0 mi SSE 15.0 mph 19.6 mph 0.06 in   Drizzle
5:15 AM 63.5 °F 61.7 °F 94% 29.58 in 5.0 mi South 12.7 mph - N/A Rain Rain
5:35 AM 63.7 °F 61.9 °F 94% 29.58 in 7.0 mi South 13.8 mph - 0.01 in Rain Rain
5:55 AM 64.0 °F 62.2 °F 94% 29.58 in 7.0 mi SSW 18.4 mph 26.5 mph 0.01 in   Light Drizzle
6:15 AM 64.0 °F 61.9 °F 93% 29.58 in 10.0 mi SSW 20.7 mph 24.2 mph N/A   Overcast
6:35 AM 63.7 °F 61.3 °F 92% 29.56 in 10.0 mi South 11.5 mph - N/A   Overcast
6:55 AM 63.1 °F 60.8 °F 92% 29.57 in 10.0 mi SSW 16.1 mph - N/A   Light Drizzle
7:15 AM 62.6 °F 60.3 °F 92% 29.59 in 10.0 mi SW 15.0 mph 20.7 mph N/A   Overcast
7:35 AM 62.6 °F 59.9 °F 91% 29.59 in 10.0 mi SW 15.0 mph - N/A   Overcast
7:55 AM 62.6 °F 59.9 °F 91% 29.60 in 10.0 mi SW 15.0 mph 18.4 mph N/A   Overcast
8:15 AM 62.8 °F 60.1 °F 91% 29.59 in 10.0 mi SSW 13.8 mph - N/A   Overcast
8:35 AM 63.1 °F 60.3 °F 90% 29.59 in 10.0 mi SSW 11.5 mph - N/A   Overcast
8:55 AM 63.5 °F 60.3 °F 89% 29.58 in 10.0 mi SSW 15.0 mph - N/A   Overcast
9:15 AM 63.9 °F 60.6 °F 89% 29.58 in 10.0 mi SSW 11.5 mph - N/A   Overcast
9:35 AM 64.4 °F 61.0 °F 89% 29.56 in 10.0 mi South 12.7 mph - N/A   Overcast
9:55 AM 64.9 °F 60.4 °F 85% 29.55 in 10.0 mi South 17.3 mph - N/A   Overcast
10:15 AM 64.6 °F 60.1 °F 85% 29.55 in 5.0 mi South 20.7 mph 27.6 mph N/A Rain Light Rain
10:35 AM 64.0 °F 60.1 °F 87% 29.54 in 7.0 mi SSW 17.3 mph 23.0 mph N/A Rain Rain
10:55 AM 64.2 °F 61.0 °F 89% 29.53 in 4.0 mi SSW 27.6 mph 33.4 mph 0.03 in Rain Rain
11:15 AM 65.3 °F 61.7 °F 88% 29.53 in 10.0 mi SW 23.0 mph 29.9 mph N/A   Overcast
11:35 AM 65.5 °F 61.2 °F 86% 29.53 in 10.0 mi SW 20.7 mph 32.2 mph N/A   Overcast
11:55 AM 67.6 °F 61.5 °F 81% 29.52 in 10.0 mi SSW 26.5 mph - N/A   Scattered Clouds
12:15 PM 68.5 °F 61.0 °F 77% 29.51 in 10.0 mi SSW 24.2 mph 31.1 mph N/A   Mostly Cloudy
12:35 PM 69.8 °F 61.3 °F 74% 29.49 in 10.0 mi SSW 24.2 mph 28.8 mph N/A Thunderstorm Mostly Cloudy
12:55 PM 69.1 °F 60.3 °F 73% 29.48 in 10.0 mi SSW 24.2 mph 27.6 mph N/A Thunderstorm Mostly Cloudy
1:15 PM 63.9 °F 55.9 °F 75% 29.48 in 4.0 mi SW 16.1 mph 28.8 mph 0.03 in Rain , Thunderstorm Light Thunderstorms and Rain
1:35 PM 61.5 °F 55.9 °F 82% 29.47 in 7.0 mi SSW 20.7 mph 28.8 mph 0.03 in Rain , Thunderstorm Light Thunderstorms and Rain
1:55 PM 62.6 °F 58.1 °F 85% 29.46 in 7.0 mi SW 19.6 mph - 0.04 in Rain , Thunderstorm Rain
2:15 PM 63.0 °F 59.5 °F 89% 29.45 in 10.0 mi SSW 16.1 mph - N/A   Light Drizzle
2:35 PM 61.2 °F 55.4 °F 81% 29.45 in 10.0 mi WSW 25.3 mph 42.6 mph N/A   Overcast
2:55 PM 58.6 °F 54.5 °F 86% 29.45 in 5.0 mi WSW 24.2 mph 34.5 mph N/A   Overcast
3:15 PM 57.4 °F 54.1 °F 89% 29.45 in 2.5 mi WSW 25.3 mph 39.1 mph N/A Rain Light Rain
3:35 PM 57.6 °F 55.0 °F 91% 29.46 in 2.5 mi WSW 23.0 mph 34.5 mph N/A Rain Rain
3:55 PM 57.0 °F 54.1 °F 90% 29.50 in 3.0 mi WNW 24.2 mph 36.8 mph 0.01 in   Light Drizzle
4:15 PM 54.1 °F 51.6 °F 91% 29.55 in 2.5 mi WNW 25.3 mph 38.0 mph N/A   Light Drizzle
4:35 PM 53.6 °F 50.9 °F 91% 29.58 in 7.0 mi WNW 27.6 mph 35.7 mph 0.01 in Rain Rain
4:55 PM 53.4 °F 50.4 °F 89% 29.61 in 5.0 mi WNW 25.3 mph 34.5 mph 0.01 in   Overcast
5:15 PM 53.2 °F 49.6 °F 88% 29.63 in 10.0 mi WNW 25.3 mph 38.0 mph N/A   Overcast
5:35 PM 53.2 °F 49.1 °F 86% 29.66 in 10.0 mi WNW 21.9 mph 33.4 mph N/A   Overcast
5:55 PM 53.2 °F 48.6 °F 84% 29.68 in 10.0 mi WNW 19.6 mph 32.2 mph N/A   Overcast
6:15 PM 53.4 °F 49.1 °F 85% 29.70 in 10.0 mi WNW 21.9 mph - N/A   Overcast
6:35 PM 52.3 °F 47.8 °F 85% 29.72 in 10.0 mi WNW 19.6 mph 33.4 mph N/A   Overcast
6:55 PM 52.2 °F 47.7 °F 85% 29.74 in 10.0 mi WNW 24.2 mph 31.1 mph N/A   Overcast
7:15 PM 52.2 °F 48.0 °F 86% 29.75 in 10.0 mi WNW 16.1 mph 23.0 mph N/A   Overcast
7:35 PM 52.0 °F 48.2 °F 87% 29.75 in 10.0 mi WNW 15.0 mph 24.2 mph N/A   Overcast
7:55 PM 51.4 °F 48.2 °F 89% 29.76 in 7.0 mi WNW 17.3 mph 27.6 mph N/A   Overcast
8:15 PM 51.6 °F 48.2 °F 88% 29.77 in 10.0 mi WNW 18.4 mph 26.5 mph N/A   Overcast
8:35 PM 51.8 °F 47.8 °F 86% 29.78 in 10.0 mi WNW 16.1 mph 24.2 mph N/A   Overcast
8:55 PM 51.6 °F 47.5 °F 86% 29.78 in 10.0 mi NW 17.3 mph 25.3 mph N/A   Overcast
9:15 PM 50.9 °F 46.4 °F 85% 29.79 in 10.0 mi WNW 23.0 mph 28.8 mph N/A   Overcast
9:35 PM 50.7 °F 46.2 °F 85% 29.80 in 10.0 mi WNW 17.3 mph 25.3 mph N/A   Overcast
9:55 PM 50.4 °F 45.9 °F 85% 29.80 in 10.0 mi WNW 16.1 mph 21.9 mph N/A   Overcast
10:15 PM 50.0 °F 45.5 °F 85% 29.81 in 10.0 mi WNW 16.1 mph 23.0 mph N/A   Overcast
10:35 PM 49.6 °F 44.6 °F 83% 29.82 in 10.0 mi WNW 15.0 mph - N/A   Overcast
10:55 PM 49.5 °F 44.4 °F 83% 29.83 in 10.0 mi WNW 15.0 mph 23.0 mph N/A   Overcast
11:15 PM 49.3 °F 43.9 °F 82% 29.83 in 10.0 mi NW 21.9 mph 26.5 mph N/A   Overcast
11:35 PM 48.6 °F 43.2 °F 82% 29.84 in 10.0 mi WNW 10.4 mph - N/A   Mostly Cloudy
11:55 PM 48.2 °F 42.8 °F 82% 29.84 in 10.0 mi WNW 8.1 mph - N/A   Scattered Clouds